Current weather by "City, St" or "zip code"  
 

Current Conditions: Custer, Custer County Airport, SD

Fair


55.0 F

Last Updated on Oct 21 2021, 11:53 am MDT
Humidity: 38%
Wind Speed: N 0.0 mph
Barometer 30.20 in
Dewpoint: 30.0 F
Visibility: 10.00 mi
Precip: --
Heat Index: NA
Wind Chill: NA
Current conditions at:

Custer, Custer County Airport, SD (KCUT)

Lat: 43.73306 Lon: 103.6175

Local Radar Image active severe weather and emergency alerts image image weather storm and storm spotter reports image weather observation monitoring service image
Local
Radar
Active
Alerts
Storm Reports Obs
Monitoring

Sign-up For Email & Text Message Weather Alert Notification Services



Advertise Here

Observation History for Custer, Custer County Airport, SD


Time Wind
(mph)
Vis
(mi)
Weather Precip (in) Temperature (F) Relative
Humidity
Wind
Chill
(F)
Heat
Index
(F)
Pressure
Air Dwpt altimeter
(in)
sea level
(mb)
Rmks
11:53 am MDT N 0.0 10.00 Fair -- 55.0 30.0 38% NA NA 30.20 1020.9
10:53 am MDT S 4.6 10.00 Fair -- 53.0 28.9 40% 52 NA 30.21 1021.8
9:53 am MDT S 4.6 10.00 Fair -- 49.0 30.0 48% 47 NA 30.21 1022.3
8:53 am MDT N 0.0 10.00 Fair -- 50.0 27.0 41% NA NA 30.21 1021.8
7:53 am MDT NW 3.5 10.00 Fair -- 34.0 25.0 70% NA NA 30.19 1024.0
6:53 am MDT N 4.6 10.00 Fair -- 30.0 25.0 82% 25 NA 30.17 1024.1
5:53 am MDT NW 4.6 10.00 Fair -- 29.0 26.1 89% 24 NA 30.16 1023.1
4:53 am MDT W 3.5 10.00 Fair -- 30.0 28.0 92% NA NA 30.16 1021.9
3:53 am MDT N 0.0 10.00 Fair -- 34.0 28.9 82% NA NA 30.15 1021.4
2:53 am MDT 3.5 10.00 Fair -- 35.0 28.9 78% NA NA 30.15 1021.3
1:53 am MDT NW 3.5 10.00 Fair -- 34.0 30.0 85% NA NA 30.14 1021.9
12:53 am MDT W 4.6 10.00 Fair -- 37.0 32.0 82% 33 NA 30.15 1021.6
11:53 pm MDT W 3.5 10.00 Fair -- 37.0 30.9 79% NA NA 30.15 1021.8
10:53 pm MDT W 6.9 10.00 Fair -- 35.0 28.0 76% 29 NA 30.15 1022.4
9:53 pm MDT N 0.0 10.00 Fair -- 34.0 25.0 70% NA NA 30.15 1022.4
8:53 pm MDT W 6.9 10.00 Fair -- 36.0 24.1 62% 30 NA 30.15 1022.9
7:53 pm MDT N 0.0 10.00 Fair -- 33.0 30.0 89% NA NA 30.15 1023.5
6:53 pm MDT N 0.0 10.00 Fair -- 34.0 30.9 89% NA NA 30.14 1022.7
5:53 pm MDT SW 4.6 10.00 Fair -- 38.0 33.1 83% 34 NA 30.12 1021.5
4:53 pm MDT SW 3.5 10.00 Fair -- 44.0 35.1 71% NA NA 30.12 1020.5
3:53 pm MDT W 8.1 10.00 Fair -- 41.0 35.1 79% 36 NA 30.12 1021.1
2:53 pm MDT SW 5.8 10.00 Fair -- 40.0 33.1 77% 36 NA 30.13 1021.5
1:53 pm MDT N 0.0 10.00 Overcast -- 36.0 32.0 86% NA NA 30.13 1022.2
12:53 pm MDT SW 3.5 10.00 Overcast -- 37.0 30.0 76% NA NA 30.13 1021.9

Regional Weather Observation


Mondell Field, WY (KECS)

Fair
50.0 F

Rapid City, Rapid City Regional Airport, SD (KRAP)

Fair
47.0 F

Ellsworth Air Force Base, SD (KRCA)

Fair
49.0 F

Spearfish / Clyde Ice, SD (KSPF)

Fair
54.0 F

Hulett Municipal Airport, WY (KW43)

Fair
54.0 F

Pine Ridge, Pine Ridge Airport, SD (KIEN)

Fair
44.0 F

Advertise Here


Advertise Here